Overview Statistics Trail Chart Weather Telemetry Raw packets
 

This is the latest recevied weather packets stored in our database for station/object WA1NHP. If no packets are shown the sender has not sent any weather packets the latest 10 day(s).

<< 40 41 42 43 44 45 46 >>
Time Temp. Humidity Pressure Rain* Wind** Luminosity Snow
1788009844 15° C 82% 1023.9 hPa 0 mm - 81 W/m² -
1788009244 14.44° C 84% 1023.9 hPa 0 mm - 79 W/m² -
1788008644 13.89° C 86% 1023.9 hPa 0 mm - 54 W/m² -
1788008043 13.33° C 90% 1023.9 hPa 0 mm - 54 W/m² -
1788007444 13.33° C 93% 1023.9 hPa 0 mm - 65 W/m² -
1788006844 12.22° C 96% 1023.9 hPa 0 mm - 93 W/m² -
1788006244 11.67° C 97% 1023.9 hPa 0 mm - 47 W/m² -
1788005644 11.67° C 97% 1023.9 hPa 0 mm - 42 W/m² -
1788005044 11.11° C 97% 1023.9 hPa 0 mm - 40 W/m² -
1788004444 10.56° C 97% 1023.9 hPa 0 mm - 37 W/m² -
1788003844 10.56° C 97% 1023.9 hPa 0 mm - 33 W/m² -
1788003244 10° C 97% 1023.9 hPa 0 mm - 30 W/m² -
1788002644 10° C 97% 1023.9 hPa 0 mm - 25 W/m² -
1788002044 9.44° C 97% 1023.9 hPa 0 mm - 21 W/m² -
1788001444 8.89° C 96% 1023.9 hPa 0 mm - 18 W/m² -
1788000844 9.44° C 96% 1023.9 hPa 0 mm - 14 W/m² -
1788000244 8.89° C 96% 1023.9 hPa 0 mm - 11 W/m² -
1787999644 8.89° C 96% 1023.9 hPa 0 mm - 7 W/m² -
1787999043 8.89° C 96% 1023.9 hPa 0 mm - 0 W/m² -
1787998444 9.44° C 96% 1023.9 hPa 0 mm - 0 W/m² -
1787997844 9.44° C 96% 1023.9 hPa 0 mm - 0 W/m² -
1787997244 9.44° C 96% 1023.9 hPa 0 mm - 0 W/m² -
1787996643 9.44° C 96% 1023.9 hPa 0 mm - 0 W/m² -
1787996044 9.44° C 96% 1023.9 hPa 0 mm - 0 W/m² -
1787995445 9.44° C 95% 1023.9 hPa 0 mm - 0 W/m² -

* Rain latest hour (hover to see other rain measurements)
** Current wind speed in m/s (hover to see current wind gust speed)